Date,TemperatureHighF,TemperatureAvgF,TemperatureLowF,DewpointHighF,DewpointAvgF,DewpointLowF,HumidityHigh,HumidityAvg,HumidityLow,PressureMaxIn,PressureMinIn,WindSpeedMaxMPH,WindSpeedAvgMPH,GustSpeedMaxMPH,PrecipitationSumIn
2013-7-1,83.8,72.2,65.2,68.3,65.8,63.0,99,82,54,29.89,29.75,5,1,7,0.31
2013-7-2,84.1,73.1,64.2,70.3,66.8,63.6,100,82,55,30.01,29.87,5,1,7,0.01
2013-7-3,85.3,74.3,67.3,72.5,69.3,66.1,97,85,58,30.11,30.01,3,0,6,0.03
2013-7-4,80.5,72.0,67.6,72.2,69.3,67.0,99,92,72,30.18,30.07,4,0,8,0.82
2013-7-5,84.1,73.1,67.6,73.2,69.8,67.2,100,90,62,30.15,30.07,5,1,10,0.25
2013-7-6,85.9,73.8,68.9,74.5,70.4,68.0,100,91,58,30.13,30.02,6,1,12,0.28
2013-7-7,80.5,71.8,67.4,72.5,68.8,65.6,100,91,70,30.12,30.01,2,0,5,0.54
2013-7-8,87.4,75.8,64.2,74.3,68.9,63.7,100,81,51,30.13,30.04,3,0,6,0.00
2013-7-9,91.4,79.4,71.8,75.6,70.9,-99.9,96,79,48,30.07,29.97,4,-10,7,0.01
2013-7-10,88.5,77.4,67.8,77.4,72.3,65.7,97,85,61,29.98,29.83,11,1,12,0.30
2013-7-11,81.1,71.4,66.0,70.5,67.9,65.5,100,90,65,29.96,29.88,6,1,11,0.01
2013-7-12,81.0,70.6,61.5,65.3,58.9,-99.9,87,68,47,30.04,29.95,9,-2,13,0.00
2013-7-13,85.1,73.6,61.0,68.4,63.7,58.8,95,73,52,30.11,30.02,7,1,12,0.00
2013-7-14,88.3,79.3,68.4,73.0,69.4,66.0,93,73,55,30.21,30.10,11,2,13,0.00
2013-7-15,91.6,79.5,67.5,73.2,69.2,66.0,98,74,44,30.29,30.19,6,0,8,0.00
2013-7-16,93.6,80.9,68.5,73.6,70.7,67.8,98,74,44,30.30,30.21,3,0,5,0.00
2013-7-17,93.9,82.2,72.5,77.2,73.0,68.9,97,76,46,30.27,30.13,12,1,12,0.00
2013-7-18,93.9,82.9,73.9,77.7,74.3,71.8,98,78,50,30.16,30.00,5,0,7,0.00
2013-7-19,92.5,81.2,73.2,76.8,73.8,70.2,98,80,56,30.03,29.88,8,1,12,0.01
2013-7-20,91.4,78.4,69.8,74.7,71.5,68.5,98,81,51,29.93,29.81,8,2,17,0.24
2013-7-21,85.1,75.2,69.3,74.1,70.6,68.9,100,87,61,29.96,29.85,6,0,7,0.66
2013-7-22,82.9,73.4,70.9,73.6,71.0,69.4,98,93,69,29.91,29.75,6,0,11,0.82
2013-7-23,88.9,76.1,69.1,73.6,70.2,66.0,99,84,51,29.81,29.71,8,1,12,0.05
2013-7-24,78.8,71.5,67.6,69.3,65.2,59.7,99,82,55,29.93,29.72,6,1,12,0.36
2013-7-25,79.0,68.3,58.1,61.2,57.6,55.2,95,71,47,30.06,29.93,8,1,10,0.00
2013-7-26,83.1,69.0,55.8,66.7,59.9,55.2,100,77,42,30.08,29.96,9,0,10,0.01
2013-7-27,79.9,70.4,62.8,68.0,64.5,61.9,98,83,60,29.96,29.83,10,1,12,0.25
2013-7-28,77.2,68.1,57.6,65.1,58.7,51.4,99,76,42,30.06,29.86,11,1,13,0.01
2013-7-29,80.2,66.0,51.6,64.0,56.5,51.1,99,76,41,30.16,30.05,8,0,12,0.00
2013-7-30,83.1,70.8,57.9,67.6,62.1,57.4,99,77,46,30.21,30.11,5,0,8,0.00
2013-7-31,76.5,69.6,66.4,68.2,66.1,63.7,98,89,71,30.11,29.93,6,0,8,0.04